[[{"header":{"parameterUnit":"m.s-1","parameterCategory":1,"la1":30.2991,"la2":30.254,"lo1":-89.0895,"lo2":-89.0444,"dy":0.0017,"dx":0.0017,"nx":28,"ny":28,"refTime":"2025-03-31T03:00:00:Z","depth":0,"parameterNumber":2,"parameterNumberName":"U-component_of_WINDS"},"data":[0,0,0,0,0,0,0,0,0,0,0,0,0,0,0,0,0,0,0,0,0,0,0,0,0,0,0,0,0,0,0,0,0,0,0,0,0,0,0,0,0,0,0,0,0,0,0,0,0,0,0,0,0,0,0,0,0,0,-1.799,-1.799,0,-1.8,-1.8001,-1.8001,-1.7989,-1.7988,-1.7988,-1.7987,-1.7998,-1.7998,-1.7999,0,0,0,0,0,0,0,0,0,0,0,0,0,-1.7959,-1.796,-1.799,-1.799,-1.799,-1.8,-1.8001,-1.8001,-1.7989,-1.7988,-1.7988,-1.7987,-1.7997,-1.7998,-1.7999,0,0,0,0,0,0,0,0,0,0,0,0,0,-1.7971,-1.796,-1.799,-1.7985,-1.7985,-1.8,-1.8001,-1.8001,-1.7989,-1.7988,-1.7988,-1.7987,-1.7997,-1.7998,-1.7999,-1.8019,0,0,-1.8002,-1.8003,0,0,0,0,0,0,0,0,-1.7971,-1.7972,-1.7986,-1.7986,-1.7985,-1.7993,-1.7993,-1.8007,-1.7989,-1.7987,-1.7987,-1.7987,-1.7997,-1.7998,-1.8001,-1.802,-1.802,-1.8003,-1.8003,-1.8004,-1.8004,0,0,0,0,0,0,0,-1.797,-1.7972,-1.7994,-1.7986,-1.7986,-1.7983,-1.7984,-1.7996,-1.7996,-1.7987,-1.7987,-1.7988,-1.7996,-1.8,-1.8001,-1.802,-1.8003,-1.8003,-1.8004,-1.8005,-1.8057,-1.8057,0,0,0,0,0,0,-1.7969,-1.7971,-1.7994,-1.7994,-1.7976,-1.7984,-1.7985,-1.7991,-1.7995,-1.7995,-1.7989,-1.7988,-1.7999,-1.8,-1.8002,-1.8025,-1.8004,-1.8005,-1.8005,-1.8056,-1.8057,-1.8058,0,0,0,0,0,0,-1.7969,-1.7972,-1.7993,-1.7983,-1.7985,-1.7985,-1.7992,-1.7991,-1.7995,-1.7996,-1.7996,-1.7993,-1.7998,-1.8,-1.8015,-1.8026,-1.8005,-1.8006,-1.8055,-1.8056,-1.8057,-1.8073,0,0,0,0,0,0,-1.7968,-1.7971,-1.7979,-1.7983,-1.7986,-1.8007,-1.7992,-1.7992,-1.7997,-1.7996,-1.8,-1.8,-1.7998,-1.8014,-1.8016,-1.8027,-1.8007,-1.8054,-1.8056,-1.8057,-1.8072,-1.8075,-1.8077,0,0,0,0,0,-1.7967,-1.7983,-1.7979,-1.7982,-1.7995,-1.8007,-1.8009,-1.8006,-1.7998,-1.8006,-1.8007,-1.8,-1.8024,-1.8015,-1.8018,-1.8029,-1.8053,-1.8055,-1.8057,-1.807,-1.8074,-1.8077,0,0,0,0,0,0,-1.7979,-1.7983,-1.7979,-1.7997,-1.8002,-1.8005,-1.8014,-1.801,-1.8017,-1.8015,-1.8011,-1.8013,-1.8029,-1.803,-1.802,-1.8049,-1.8037,-1.804,-1.8047,-1.805,-1.8053,-1.8052,-1.8008,0,0,0,0,0,-1.7984,-1.7994,-1.7997,-1.8012,-1.8014,-1.8014,-1.8019,-1.8017,-1.8022,-1.8024,-1.8026,-1.8031,-1.8039,-1.8045,-1.8053,-1.8072,-1.8073,-1.8081,-1.8084,-1.8086,-1.8088,-1.8099,-1.8102,-1.8063,-1.8063,-1.8063,0,0,-1.7994,-1.7997,-1.8004,-1.8014,-1.8018,-1.8028,-1.8016,-1.8027,-1.8034,-1.8025,-1.804,-1.8041,-1.8047,-1.8064,-1.8072,-1.8066,-1.8099,-1.8088,-1.809,-1.8091,-1.8101,-1.8104,-1.8108,-1.8064,-1.8064,-1.8064,0,0,-1.8017,-1.8021,-1.8034,-1.8038,-1.8044,-1.8044,-1.8047,-1.8051,-1.8052,-1.8067,-1.806,-1.8069,-1.8084,-1.8089,-1.8093,-1.8119,-1.8113,-1.8122,-1.8136,-1.8146,-1.8149,-1.8152,-1.8161,-1.8164,-1.8124,-1.8124,-1.8124,0,-1.8029,-1.8044,-1.8041,-1.8053,-1.8058,-1.8051,-1.8064,-1.8068,-1.8077,-1.808,-1.8074,-1.8093,-1.8096,-1.8115,-1.8121,-1.8125,-1.8128,-1.8121,-1.8149,-1.8152,-1.8154,-1.8163,-1.8166,-1.8125,-1.8125,-1.8124,-1.8124,0,-1.8057,-1.8068,-1.8078,-1.8086,-1.8093,-1.8105,-1.8105,-1.8112,-1.8109,-1.811,-1.8125,-1.8128,-1.8137,-1.8142,-1.8139,-1.816,-1.8156,-1.815,-1.8138,-1.8159,-1.8167,-1.817,-1.8126,-1.8126,-1.8125,-1.8125,0,0,-1.8087,-1.8095,-1.8099,-1.8103,-1.811,-1.8118,-1.813,-1.8139,-1.8145,-1.8151,-1.8162,-1.8175,-1.8169,-1.8174,-1.8172,-1.8181,-1.8202,-1.8174,-1.8174,-1.8178,-1.8225,-1.8229,-1.8233,-1.8198,-1.8199,-1.82,-1.8224,0,-1.811,-1.8132,-1.8131,-1.8151,-1.8161,-1.8155,-1.8166,-1.8172,-1.8173,-1.8181,-1.8183,-1.8192,-1.8184,-1.8187,-1.8196,-1.8197,-1.8211,-1.8196,-1.8208,-1.8208,-1.8206,-1.8237,-1.8242,-1.8265,-1.8228,-1.8228,-1.8228,0,-1.814,-1.8148,-1.8169,-1.8175,-1.8179,-1.8189,-1.8197,-1.8206,-1.8212,-1.8212,-1.8218,-1.8215,-1.8228,-1.8217,-1.8234,-1.8224,-1.8229,-1.8231,-1.8231,-1.8232,-1.8219,-1.8238,-1.8272,-1.8276,-1.8233,-1.8233,-1.8233,0,-1.8159,-1.8175,-1.819,-1.8194,-1.8201,-1.8208,-1.8211,-1.8217,-1.8223,-1.823,-1.8234,-1.8243,-1.8248,-1.8255,-1.8254,-1.8246,-1.8272,-1.8261,-1.8273,-1.8273,-1.8278,-1.8277,-1.8313,-1.8282,-1.8282,-1.8282,-1.8282,0,-1.8185,-1.8198,-1.8199,-1.8208,-1.8223,-1.8222,-1.8237,-1.8239,-1.8244,-1.8254,-1.825,-1.8259,-1.8258,-1.8267,-1.8267,-1.8281,-1.8284,-1.8284,-1.8284,-1.8284,-1.8284,-1.8287,-1.8285,-1.8283,-1.8283,-1.8283,-1.8282,0,-1.8209,-1.821,-1.8226,-1.8232,-1.8233,-1.8244,-1.8249,-1.8258,-1.8259,-1.8272,-1.8274,-1.8276,-1.8287,-1.8288,-1.83,-1.83,-1.8317,-1.8316,-1.8315,-1.8315,-1.8326,-1.8325,-1.8364,-1.8369,-1.8336,-1.8336,-1.8336,0,-1.8224,-1.8235,-1.8242,-1.8248,-1.8252,-1.8262,-1.8268,-1.8268,-1.8274,-1.8283,-1.8291,-1.8301,-1.8309,-1.8327,-1.8329,-1.8339,-1.8337,-1.835,-1.8338,-1.8338,-1.8336,-1.8336,-1.8337,-1.8352,-1.8352,-1.8353,-1.8353,0,-1.8252,-1.8253,-1.8262,-1.8271,-1.8279,-1.8287,-1.8293,-1.8299,-1.8299,-1.8307,-1.8318,-1.8325,-1.8338,-1.8348,-1.8357,-1.8361,-1.8357,-1.8357,-1.836,-1.836,-1.8359,-1.8359,-1.8321,-1.8355,-1.8355,-1.8355,-1.8355,-1.8355,-1.8272,-1.8281,-1.8288,-1.8298,-1.8304,-1.8311,-1.8319,-1.8322,-1.8331,-1.8342,-1.8341,-1.8354,-1.836,-1.8373,-1.8377,-1.8387,-1.8382,-1.8387,-1.8388,-1.8389,-1.839,-1.8358,-1.8388,-1.8388,-1.8388,-1.8388,-1.8388,0,-1.83,-1.8304,-1.8314,-1.8324,-1.8332,-1.8329,-1.8336,-1.8344,-1.8355,-1.8361,-1.837,-1.8383,-1.8393,-1.8397,-1.8407,-1.8414,-1.8413,-1.8417,-1.8416,-1.8417,-1.8393,-1.839,-1.8418,-1.8418,-1.8418,-1.8418,-1.8418,-1.8418,-1.8315,-1.833,-1.8331,-1.8349,-1.8353,-1.8365,-1.837,-1.8377,-1.8382,-1.8397,-1.8406,-1.8408,-1.8414,-1.8424,-1.8434,-1.8435,-1.8439,-1.8443,-1.8443,-1.8421,-1.8418,-1.8415,-1.8412,-1.8444,-1.8444,-1.8466,-1.8466,-1.8466]},{"header":{"parameterUnit":"m.s-1","parameterCategory":1,"la1":30.2991,"la2":30.254,"lo1":-89.0895,"lo2":-89.0444,"dy":0.0017,"dx":0.0017,"nx":28,"ny":28,"refTime":"2025-03-31T03:00:00:Z","depth":0,"parameterNumber":3,"parameterNumberName":"V-component_of_WINDS"},"data":[0,0,0,0,0,0,0,0,0,0,0,0,0,0,0,0,0,0,0,0,0,0,0,0,0,0,0,0,0,0,0,0,0,0,0,0,0,0,0,0,0,0,0,0,0,0,0,0,0,0,0,0,0,0,0,0,0,0,0.7155,0.7155,0,0.7142,0.7142,0.7142,0.7121,0.7121,0.7121,0.712,0.7106,0.7106,0.7106,0,0,0,0,0,0,0,0,0,0,0,0,0,0.7163,0.7163,0.7155,0.7155,0.7155,0.7142,0.7142,0.7142,0.7122,0.7121,0.7121,0.712,0.7106,0.7106,0.7106,0,0,0,0,0,0,0,0,0,0,0,0,0,0.7156,0.7163,0.7155,0.7143,0.7142,0.7142,0.7142,0.7142,0.7122,0.7121,0.7121,0.712,0.7106,0.7106,0.7106,0.7116,0,0,0.7105,0.7105,0,0,0,0,0,0,0,0,0.7156,0.7156,0.7145,0.7144,0.7143,0.7133,0.7139,0.7133,0.7122,0.7129,0.712,0.712,0.7115,0.7114,0.7113,0.7115,0.7115,0.7105,0.7105,0.7105,0.7105,0,0,0,0,0,0,0,0.7157,0.7156,0.715,0.7145,0.7144,0.7139,0.7137,0.7138,0.7125,0.7129,0.7127,0.7126,0.7114,0.7113,0.7112,0.7114,0.7105,0.7105,0.7105,0.7105,0.7124,0.7125,0,0,0,0,0,0,0.7159,0.7157,0.715,0.715,0.7148,0.7139,0.7137,0.7137,0.7125,0.7123,0.7126,0.7125,0.7114,0.7113,0.7112,0.7122,0.7105,0.7105,0.7105,0.7124,0.7124,0.7125,0,0,0,0,0,0,0.7159,0.7159,0.7151,0.7153,0.7151,0.7139,0.7139,0.7137,0.7135,0.7124,0.7121,0.7127,0.7113,0.7112,0.7115,0.7122,0.7105,0.7105,0.7123,0.7124,0.7125,0.7144,0,0,0,0,0,0,0.716,0.7159,0.7163,0.7153,0.7151,0.7155,0.7139,0.7137,0.7135,0.7133,0.7124,0.7122,0.7113,0.7115,0.7115,0.7121,0.7105,0.7122,0.7123,0.7124,0.7143,0.7146,0.7148,0,0,0,0,0,0.716,0.7169,0.7163,0.7162,0.7156,0.7155,0.7154,0.7143,0.7136,0.7139,0.7132,0.7122,0.7122,0.7116,0.7115,0.7122,0.7122,0.7123,0.7124,0.7142,0.7145,0.7148,0,0,0,0,0,0,0.7179,0.7167,0.7161,0.7166,0.7162,0.7152,0.7156,0.7147,0.7144,0.7143,0.713,0.7128,0.7132,0.7127,0.7121,0.7131,0.712,0.7121,0.7134,0.7137,0.7139,0.714,0.7105,0,0,0,0,0,0.7184,0.7185,0.7174,0.718,0.7178,0.7168,0.7167,0.7159,0.7154,0.7152,0.7144,0.7139,0.7138,0.7137,0.7135,0.7143,0.714,0.7147,0.7149,0.7152,0.7152,0.7155,0.7158,0.7129,0.7129,0.7129,0,0,0.7194,0.7188,0.7189,0.7184,0.7179,0.718,0.7166,0.7167,0.7167,0.7152,0.7154,0.7149,0.7142,0.7147,0.7149,0.7143,0.716,0.7153,0.7155,0.7154,0.7157,0.716,0.7162,0.713,0.713,0.7129,0,0,0.7212,0.7208,0.7212,0.7208,0.7202,0.7195,0.7196,0.7187,0.7183,0.7185,0.7174,0.7174,0.7172,0.7168,0.7165,0.7183,0.7173,0.7183,0.7196,0.7199,0.7201,0.7203,0.7209,0.7211,0.7184,0.7184,0.7184,0,0.7225,0.7226,0.7215,0.7217,0.7215,0.7202,0.7206,0.7203,0.7196,0.7195,0.7189,0.7186,0.7181,0.7185,0.7189,0.7188,0.7189,0.7183,0.7202,0.7203,0.7205,0.721,0.7212,0.7185,0.7185,0.7185,0.7185,0,0.7242,0.7242,0.7247,0.7241,0.724,0.7243,0.7233,0.7233,0.7226,0.7219,0.7222,0.7215,0.7212,0.7213,0.7205,0.7215,0.7212,0.7204,0.7193,0.7209,0.7214,0.7216,0.7187,0.7186,0.7186,0.7186,0,0,0.727,0.7259,0.7261,0.7258,0.725,0.7251,0.7253,0.725,0.725,0.7247,0.7248,0.7247,0.724,0.7238,0.723,0.7233,0.7247,0.7225,0.7224,0.7228,0.7257,0.7262,0.7264,0.7241,0.7242,0.7242,0.7257,0,0.7286,0.7289,0.7281,0.7287,0.7287,0.7275,0.7277,0.7273,0.7267,0.7267,0.726,0.726,0.7251,0.7249,0.7252,0.7245,0.7252,0.7244,0.7242,0.7242,0.7242,0.7267,0.7272,0.7286,0.7259,0.7259,0.7259,0,0.7304,0.7302,0.7308,0.73,0.73,0.7302,0.7299,0.7299,0.7294,0.7289,0.7287,0.7278,0.728,0.7271,0.7273,0.7267,0.7266,0.7263,0.7263,0.7262,0.725,0.7265,0.7291,0.7293,0.7262,0.7262,0.7262,0,0.7323,0.7322,0.7325,0.7323,0.7314,0.7316,0.7313,0.7307,0.7306,0.7303,0.7302,0.73,0.7298,0.7296,0.7287,0.7281,0.7291,0.728,0.7286,0.7287,0.7288,0.7288,0.7313,0.7289,0.7289,0.7289,0.7289,0,0.7341,0.7345,0.7333,0.7335,0.7339,0.7329,0.7334,0.7329,0.7324,0.7325,0.7315,0.7316,0.7304,0.7304,0.7297,0.73,0.7299,0.7295,0.7293,0.7296,0.7296,0.7294,0.7292,0.729,0.729,0.7289,0.7289,0,0.7362,0.7355,0.7357,0.7349,0.7347,0.7351,0.7344,0.7345,0.7339,0.734,0.734,0.7331,0.733,0.7321,0.7318,0.7314,0.7319,0.7315,0.732,0.7319,0.7325,0.7324,0.7349,0.7351,0.7327,0.7328,0.7328,0,0.7373,0.7376,0.7369,0.7369,0.7366,0.7366,0.7365,0.7355,0.7355,0.7349,0.7351,0.735,0.7348,0.7347,0.734,0.7337,0.7333,0.7342,0.7333,0.7335,0.7332,0.7331,0.7331,0.7343,0.7344,0.7344,0.7344,0,0.7394,0.739,0.7389,0.7387,0.7386,0.7384,0.7381,0.7381,0.7371,0.7371,0.737,0.7368,0.7366,0.7364,0.7361,0.7357,0.7349,0.7348,0.7349,0.735,0.7353,0.7351,0.7324,0.7347,0.7346,0.7346,0.7346,0.7346,0.741,0.7412,0.7407,0.7406,0.7403,0.7401,0.7401,0.7396,0.7395,0.7392,0.7387,0.7387,0.7382,0.7377,0.7374,0.7373,0.7369,0.7371,0.7371,0.7371,0.7372,0.7354,0.7373,0.7373,0.7373,0.7373,0.7373,0,0.7429,0.7426,0.7425,0.7421,0.7421,0.7414,0.7411,0.741,0.741,0.7407,0.7405,0.7404,0.7403,0.7396,0.7394,0.7395,0.7391,0.7394,0.7393,0.7393,0.7377,0.7376,0.7397,0.7397,0.7397,0.7397,0.7397,0.7397,0.7439,0.7442,0.7437,0.7438,0.7435,0.7435,0.7433,0.7431,0.7428,0.7427,0.7426,0.7422,0.7417,0.7414,0.7413,0.7411,0.741,0.7414,0.7411,0.7396,0.7394,0.7391,0.739,0.7414,0.7415,0.7427,0.7427,0.7427]}]]